EW4729 Weather Reports


Display with metric or nautical units.
time (UTC)temp
F
wind
direction
speed
MPH
gust
MPH
rain 1hr
in
rain 24hr
in
rain mn
in
humidity
%
barometer
mb
20260903121052 81 202 3.0 8.0 0.00 0.02 0.00 90 1014.1
20260903120552 81 195 3.0 8.0 0.00 0.02 0.00 90 1013.9
20260903120106 81 196 3.0 6.0 0.00 0.02 0.00 90 1013.9
20260903115553 82 196 2.0 5.0 0.00 0.02 0.00 90 1013.8
20260903115052 82 0 2.0 6.0 0.00 0.02 0.00 90 1013.8
20260903114603 82 195 4.0 7.0 0.00 0.02 0.00 90 1013.8
20260903114052 82 179 3.0 7.0 0.00 0.02 0.00 90 1013.7
20260903113557 82 198 4.0 7.0 0.00 0.02 0.00 90 1013.8
20260903113059 82 209 4.0 7.0 0.00 0.02 0.00 90 1013.9
20260903112553 81 201 3.0 6.0 0.00 0.02 0.00 90 1013.9
20260903112052 82 180 3.0 6.0 0.00 0.02 0.00 90 1013.9
20260903111602 82 184 2.0 5.0 0.00 0.02 0.00 90 1013.9
20260903111052 81 195 2.0 5.0 0.00 0.02 0.00 90 1013.9
20260903110553 82 196 2.0 5.0 0.00 0.02 0.00 90 1013.9
20260903110107 82 192 2.0 5.0 0.00 0.02 0.00 90 1013.8
20260903105555 81 194 2.0 5.0 0.00 0.02 0.00 90 1013.8
20260903105057 81 196 2.0 5.0 0.00 0.02 0.00 90 1013.8
20260903104603 81 174 2.0 6.0 0.00 0.02 0.00 90 1013.8
20260903104053 81 196 2.0 6.0 0.00 0.02 0.00 90 1013.8
20260903103553 81 176 3.0 6.0 0.00 0.02 0.00 90 1013.8
20260903103059 81 196 3.0 6.0 0.00 0.02 0.00 90 1013.8
20260903102553 81 194 3.0 6.0 0.00 0.02 0.00 89 1013.7
20260903102052 81 190 4.0 7.0 0.00 0.02 0.00 89 1013.7
20260903101605 81 187 4.0 7.0 0.00 0.02 0.00 89 1013.7
20260903101052 81 205 4.0 9.0 0.00 0.02 0.00 89 1013.6
20260903100552 81 211 4.0 9.0 0.00 0.02 0.00 89 1013.5
20260903100056 81 200 4.0 9.0 0.00 0.02 0.00 89 1013.5
20260903095555 81 202 4.0 9.0 0.00 0.02 0.00 89 1013.6
20260903095053 81 199 3.0 7.0 0.00 0.02 0.00 89 1013.7
20260903094652 81 196 2.0 5.0 0.00 0.02 0.00 89 1013.8
20260903094052 81 193 2.0 5.0 0.00 0.02 0.00 89 1013.7
20260903093553 81 196 3.0 9.0 0.00 0.02 0.00 89 1013.7
20260903093102 81 194 4.0 9.0 0.00 0.02 0.00 89 1013.7
20260903092555 81 194 3.0 8.0 0.00 0.02 0.00 89 1013.6
20260903092058 81 178 3.0 7.0 0.00 0.02 0.00 89 1013.7
20260903091606 81 182 3.0 7.0 0.00 0.02 0.00 89 1013.7
20260903091053 81 194 3.0 6.0 0.00 0.02 0.00 89 1013.6
20260903090553 81 188 3.0 5.0 0.00 0.02 0.00 89 1013.7
20260903085552 81 185 2.0 7.0 0.00 0.02 0.00 89 1013.6
20260903085053 81 187 4.0 7.0 0.00 0.02 0.00 89 1013.8
20260903084600 81 188 2.0 8.0 0.00 0.02 0.00 89 1013.7
20260903084053 81 187 3.0 8.0 0.00 0.02 0.00 88 1013.7
20260903083553 81 198 3.0 9.0 0.00 0.02 0.00 88 1013.8
20260903083108 81 165 4.0 9.0 0.00 0.02 0.00 88 1013.7
20260903082552 81 174 3.0 7.0 0.00 0.02 0.00 88 1013.7
20260903082053 81 208 2.0 6.0 0.00 0.02 0.00 88 1013.6
20260903081603 81 184 2.0 8.0 0.00 0.02 0.00 88 1013.6
20260903081052 81 169 3.0 9.0 0.00 0.02 0.00 88 1013.6
20260903080552 81 202 4.0 10.0 0.00 0.02 0.00 88 1013.5
20260903080105 81 200 3.0 10.0 0.00 0.02 0.00 88 1013.5
20260903075553 82 188 3.0 9.0 0.00 0.02 0.00 88 1013.5
20260903075052 82 164 4.0 9.0 0.00 0.02 0.00 88 1013.5
20260903074609 82 161 3.0 7.0 0.00 0.02 0.00 88 1013.5
20260903074056 82 190 4.0 9.0 0.00 0.02 0.00 88 1013.5
20260903073552 82 192 3.0 9.0 0.00 0.02 0.00 88 1013.6
20260903073102 82 190 3.0 8.0 0.00 0.02 0.00 88 1013.6
20260903072552 82 178 3.0 12.0 0.00 0.02 0.00 88 1013.5
20260903072056 82 161 4.0 12.0 0.00 0.02 0.00 88 1013.6
20260903071602 82 182 5.0 9.0 0.00 0.02 0.00 88 1013.6
20260903071051 82 178 4.0 10.0 0.00 0.02 0.00 88 1013.7
20260903070556 82 178 5.0 11.0 0.00 0.02 0.00 88 1013.7
20260903070104 82 184 4.0 11.0 0.00 0.02 0.00 88 1013.7
20260903065555 82 190 3.0 7.0 0.00 0.02 0.00 88 1013.7
20260903065052 82 179 2.0 10.0 0.00 0.02 0.00 88 1013.8
20260903064603 82 171 1.0 10.0 0.00 0.02 0.00 88 1013.9
20260903064052 82 150 2.0 8.0 0.00 0.02 0.00 88 1013.9
20260903063553 82 151 2.0 8.0 0.00 0.02 0.00 88 1014.0
20260903063102 82 152 3.0 9.0 0.00 0.02 0.00 88 1014.0
20260903062552 82 157 4.0 9.0 0.00 0.02 0.00 88 1014.1
20260903062052 82 173 3.0 9.0 0.00 0.02 0.00 89 1014.1
20260903061601 82 157 4.0 8.0 0.00 0.02 0.00 89 1014.2
20260903061054 81 164 2.0 8.0 0.00 0.02 0.00 89 1014.2
20260903060553 81 155 4.0 8.0 0.00 0.02 0.00 89 1014.1
20260903060059 81 155 3.0 10.0 0.00 0.02 0.00 89 1014.1
20260903055553 81 163 2.0 10.0 0.00 0.02 0.00 90 1014.2
20260903055052 81 137 3.0 9.0 0.00 0.02 0.00 90 1014.2
20260903054613 81 173 3.0 9.0 0.00 0.02 0.00 90 1014.1
20260903054054 80 157 3.0 9.0 0.00 0.02 0.00 91 1014.1
20260903053552 80 158 1.0 6.0 0.00 0.02 0.00 91 1014.1
20260903053107 80 148 1.0 5.0 0.00 0.02 0.00 91 1014.1
20260903052553 80 150 1.0 5.0 0.00 0.02 0.00 91 1014.2
20260903052057 80 157 1.0 5.0 0.00 0.02 0.00 90 1014.2
20260903051604 79 0 1.0 6.0 0.00 0.02 0.00 90 1014.2
20260903051051 79 0 2.0 6.0 0.00 0.02 0.00 90 1014.4
20260903050551 79 0 1.0 6.0 0.00 0.02 0.00 90 1014.3
20260903050106 79 148 1.0 4.0 0.01 0.02 0.00 90 1014.3
20260903045552 79 0 0.0 3.0 0.01 0.02 0.02 90 1014.3
20260903045054 79 0 0.0 3.0 0.01 0.02 0.02 89 1014.4
20260903044602 79 128 0.0 5.0 0.01 0.02 0.02 89 1014.3
20260903044052 79 0 0.0 5.0 0.01 0.02 0.02 89 1014.4
20260903043552 79 136 0.0 5.0 0.02 0.02 0.02 88 1014.4
20260903043106 79 0 1.0 6.0 0.02 0.02 0.02 88 1014.4
20260903042555 79 107 0.0 6.0 0.02 0.02 0.02 88 1014.4
20260903042052 79 113 1.0 9.0 0.02 0.02 0.02 87 1014.6
20260903041612 80 79 3.0 10.0 0.02 0.02 0.02 86 1014.9
20260903041051 80 73 4.0 11.0 0.02 0.02 0.02 85 1015.1
20260903040551 81 62 4.0 11.0 0.02 0.02 0.02 85 1015.5
20260903040126 82 80 4.0 11.0 0.01 0.01 0.01 84 1015.5
20260903035552 83 69 2.0 9.0 0.01 0.01 0.01 83 1015.5
20260903035051 83 18 3.0 12.0 0.01 0.01 0.01 82 1015.7
20260903034602 84 318 5.0 12.0 0.01 0.01 0.01 80 1015.7
20260903034058 85 41 2.0 6.0 0.01 0.01 0.01 80 1015.5
20260903033552 85 34 2.0 5.0 0.00 0.00 0.00 79 1015.3
20260903033056 85 62 2.0 5.0 0.00 0.00 0.00 78 1015.3
20260903032552 85 345 2.0 4.0 0.00 0.00 0.00 78 1015.1
20260903032055 86 0 2.0 6.0 0.00 0.00 0.00 78 1014.9
20260903031604 86 319 1.0 6.0 0.00 0.00 0.00 78 1014.7
20260903031055 86 106 3.0 6.0 0.00 0.00 0.00 78 1014.5
20260903030555 86 84 2.0 11.0 0.00 0.00 0.00 77 1014.5
20260903030058 86 210 4.0 13.0 0.00 0.00 0.00 77 1014.3
20260903025552 86 165 3.0 17.0 0.00 0.00 0.00 76 1014.1
20260903025057 86 162 8.0 20.0 0.00 0.00 0.00 76 1013.8
20260903024602 86 187 10.0 20.0 0.00 0.00 0.00 76 1013.6
20260903024052 86 157 10.0 20.0 0.00 0.00 0.00 75 1013.4
20260903023552 86 215 8.0 18.0 0.00 0.00 0.00 74 1013.2
20260903023103 86 186 9.0 20.0 0.00 0.00 0.00 73 1013.2
20260903022555 86 187 7.0 20.0 0.00 0.00 0.00 73 1013.0
20260903022052 87 182 10.0 20.0 0.00 0.00 0.00 72 1012.6
20260903021600 87 167 5.0 18.0 0.00 0.00 0.00 70 1012.6
20260903021055 87 206 7.0 18.0 0.00 0.00 0.00 70 1012.6
20260903020552 87 182 7.0 15.0 0.00 0.00 0.00 70 1012.4
20260903020101 88 178 7.0 21.0 0.00 0.00 0.00 70 1012.4
20260903015555 88 190 7.0 21.0 0.00 0.00 0.00 70 1012.2
20260903015054 88 149 10.0 18.0 0.00 0.00 0.00 70 1012.2
20260903014601 89 201 8.0 22.0 0.00 0.00 0.00 69 1012.0
20260903014055 89 170 11.0 22.0 0.00 0.00 0.00 68 1011.8
20260903013555 90 196 8.0 18.0 0.00 0.00 0.00 66 1011.9
20260903013100 90 194 9.0 18.0 0.00 0.00 0.00 65 1011.9
20260903012552 90 181 9.0 18.0 0.00 0.00 0.00 62 1011.9
20260903012052 90 163 6.0 12.0 0.00 0.00 0.00 61 1011.9
20260903011602 91 129 6.0 12.0 0.00 0.00 0.00 61 1011.9
20260903011056 91 173 4.0 10.0 0.00 0.00 0.00 61 1011.8
20260903010552 91 153 5.0 10.0 0.00 0.00 0.00 61 1011.6
20260903010105 91 188 4.0 14.0 0.00 0.00 0.00 59 1011.7
20260903005555 92 198 5.0 14.0 0.00 0.00 0.00 59 1011.6
20260903005057 92 173 6.0 15.0 0.00 0.00 0.00 58 1011.4
20260903004558 92 202 6.0 16.0 0.00 0.00 0.00 58 1011.3
20260903004052 93 171 8.0 17.0 0.00 0.00 0.00 57 1011.3
20260903003551 93 173 8.0 17.0 0.00 0.00 0.00 57 1011.1
20260903003104 93 221 8.0 19.0 0.00 0.00 0.00 57 1011.1
20260903002552 94 190 9.0 19.0 0.00 0.00 0.00 56 1011.1
20260903002051 94 168 8.0 16.0 0.00 0.00 0.00 56 1011.1
20260903001605 94 191 8.0 16.0 0.00 0.00 0.00 56 1011.0
20260903001055 94 178 8.0 16.0 0.00 0.00 0.00 56 1011.0
20260903000553 95 159 7.0 15.0 0.00 0.00 0.00 57 1011.1
20260902235552 95 199 6.0 14.0 0.00 0.00 0.00 56 1011.0
20260902235051 96 185 7.0 13.0 0.00 0.00 0.00 56 1011.0
20260902234603 96 184 7.0 16.0 0.00 0.00 0.00 55 1011.0
20260902234055 97 173 8.0 16.0 0.00 0.00 0.00 54 1011.0
20260902233551 97 159 6.0 16.0 0.00 0.00 0.00 53 1011.0
20260902233108 98 125 7.0 16.0 0.00 0.00 0.00 52 1011.0
20260902232554 98 119 6.0 13.0 0.00 0.00 0.00 49 1011.0
20260902232054 99 163 1.0 8.0 0.00 0.00 0.00 47 1010.9
20260902231606 99 190 3.0 10.0 0.00 0.00 0.00 46 1010.9
20260902231052 100 136 2.0 11.0 0.00 0.00 0.00 45 1010.9
20260902230554 100 210 5.0 11.0 0.00 0.00 0.00 44 1010.9
20260902230124 101 178 4.0 11.0 0.00 0.00 0.00 44 1010.9
20260902225552 102 205 6.0 11.0 0.00 0.00 0.00 42 1010.8
20260902225051 102 235 4.0 8.0 0.00 0.00 0.00 41 1010.8
20260902224604 102 207 3.0 7.0 0.00 0.00 0.00 41 1010.8
20260902224052 102 196 3.0 6.0 0.00 0.00 0.00 41 1010.8
20260902223552 102 165 2.0 6.0 0.00 0.00 0.00 41 1010.8
20260902223058 102 139 2.0 5.0 0.00 0.00 0.00 40 1010.7
20260902222554 103 225 0.0 4.0 0.00 0.00 0.00 40 1010.8
20260902222051 103 225 2.0 5.0 0.00 0.00 0.00 40 1010.9
20260902221608 103 226 1.0 7.0 0.00 0.00 0.00 40 1010.9
20260902221051 103 223 3.0 8.0 0.00 0.00 0.00 41 1010.9
20260902220551 104 212 3.0 11.0 0.00 0.00 0.00 41 1010.9
20260902220104 104 275 4.0 11.0 0.00 0.00 0.00 40 1010.9
20260902215550 103 200 4.0 10.0 0.00 0.00 0.00 41 1011.0
20260902215056 103 222 5.0 11.0 0.00 0.00 0.00 41 1011.0
20260902214609 103 195 6.0 11.0 0.00 0.00 0.00 40 1011.0
20260902214055 103 224 3.0 12.0 0.00 0.00 0.00 42 1011.0
20260902213555 103 208 6.0 12.0 0.00 0.00 0.00 42 1011.1
20260902213104 103 207 4.0 12.0 0.00 0.00 0.00 41 1011.1
20260902212551 103 0 3.0 10.0 0.00 0.00 0.00 42 1011.1
20260902212051 103 244 5.0 11.0 0.00 0.00 0.00 42 1011.3
20260902211600 103 246 5.0 11.0 0.00 0.00 0.00 42 1011.4
20260902211055 103 257 4.0 11.0 0.00 0.00 0.00 42 1011.4
20260902210552 102 302 2.0 8.0 0.00 0.00 0.00 43 1011.5
20260902210126 102 180 3.0 10.0 0.00 0.00 0.00 43 1011.5
20260902205554 102 218 5.0 10.0 0.00 0.00 0.00 43 1011.6
20260902205056 102 252 2.0 8.0 0.00 0.00 0.00 44 1011.7
20260902204601 102 254 2.0 9.0 0.00 0.00 0.00 43 1011.7
20260902204052 102 0 1.0 9.0 0.00 0.00 0.00 44 1011.8
20260902203554 102 257 5.0 9.0 0.00 0.00 0.00 43 1011.8
20260902203107 102 236 1.0 7.0 0.00 0.00 0.00 45 1011.9
20260902202552 102 68 1.0 11.0 0.00 0.00 0.00 43 1012.1
20260902202052 102 203 7.0 11.0 0.00 0.00 0.00 44 1012.2
20260902201614 102 244 3.0 16.0 0.00 0.00 0.00 45 1012.3
20260902201055 102 217 8.0 16.0 0.00 0.00 0.00 44 1012.3
20260902200552 102 219 5.0 15.0 0.00 0.00 0.00 44 1012.3
20260902200109 101 227 6.0 15.0 0.00 0.00 0.00 46 1012.6
20260902195555 101 194 2.0 6.0 0.00 0.00 0.00 46 1012.5
20260902195053 101 0 0.0 9.0 0.00 0.00 0.00 46 1012.7
20260902194605 101 0 1.0 12.0 0.00 0.00 0.00 45 1012.8
20260902194054 102 217 6.0 12.0 0.00 0.00 0.00 46 1012.9
20260902193553 102 229 6.0 12.0 0.00 0.00 0.00 45 1013.0
20260902193100 102 258 6.0 12.0 0.00 0.00 0.00 45 1013.0
20260902192551 101 218 3.0 13.0 0.00 0.00 0.00 44 1013.0
20260902192054 101 210 6.0 14.0 0.00 0.00 0.00 47 1013.2
20260902191601 101 255 6.0 14.0 0.00 0.00 0.00 46 1013.3
20260902191055 101 250 7.0 14.0 0.00 0.00 0.00 47 1013.4
20260902190555 100 252 3.0 11.0 0.00 0.00 0.00 49 1013.5
20260902190125 100 271 6.0 14.0 0.00 0.00 0.00 48 1013.5
20260902185551 100 252 5.0 14.0 0.00 0.00 0.00 47 1013.6
20260902185052 99 252 6.0 14.0 0.00 0.00 0.00 48 1013.7
20260902184608 99 220 6.0 18.0 0.00 0.00 0.00 50 1013.7
20260902184052 99 228 8.0 18.0 0.00 0.00 0.00 49 1013.8
20260902183552 99 215 3.0 13.0 0.00 0.00 0.00 50 1013.9
20260902183100 99 254 7.0 12.0 0.00 0.00 0.00 51 1014.0
20260902182554 99 242 6.0 12.0 0.00 0.00 0.00 50 1014.0
20260902182051 99 219 3.0 15.0 0.00 0.00 0.00 51 1014.1
20260902181623 98 231 6.0 15.0 0.00 0.00 0.00 50 1014.2
20260902181053 98 268 6.0 15.0 0.00 0.00 0.00 51 1014.3
20260902180552 98 263 4.0 15.0 0.00 0.00 0.00 52 1014.5
20260902175552 98 265 4.0 12.0 0.00 0.00 0.00 52 1014.7
20260902175052 98 234 7.0 16.0 0.00 0.00 0.00 53 1014.9
20260902174600 97 180 6.0 16.0 0.00 0.00 0.00 53 1015.0
20260902174053 97 246 10.0 16.0 0.00 0.00 0.00 55 1015.2
20260902173552 97 227 5.0 14.0 0.00 0.00 0.00 55 1015.1
20260902173102 97 203 6.0 13.0 0.00 0.00 0.00 55 1015.2
20260902172552 97 227 5.0 13.0 0.00 0.00 0.00 53 1015.3
20260902172051 96 217 5.0 12.0 0.00 0.00 0.00 55 1015.5
20260902171620 96 219 6.0 12.0 0.00 0.00 0.00 56 1015.4
20260902171053 96 270 4.0 14.0 0.00 0.00 0.00 57 1015.6
20260902170552 95 242 6.0 14.0 0.00 0.00 0.00 59 1015.8
20260902170059 95 254 7.0 17.0 0.00 0.00 0.00 59 1015.7
20260902165552 95 219 8.0 17.0 0.00 0.00 0.00 59 1015.8
20260902165057 94 288 9.0 15.0 0.00 0.00 0.00 60 1015.9
20260902164601 94 214 6.0 12.0 0.00 0.00 0.00 61 1015.9
20260902164054 94 266 7.0 15.0 0.00 0.00 0.00 63 1015.8
20260902163555 94 216 7.0 17.0 0.00 0.00 0.00 63 1015.9
20260902163103 94 225 7.0 17.0 0.00 0.00 0.00 63 1016.0
20260902162556 93 218 8.0 12.0 0.00 0.00 0.00 64 1016.1
20260902162057 93 257 7.0 16.0 0.00 0.00 0.00 65 1016.0
20260902161603 92 224 7.0 16.0 0.00 0.00 0.00 66 1016.1
20260902161054 92 211 7.0 16.0 0.00 0.00 0.00 66 1016.1
20260902160554 92 199 9.0 16.0 0.00 0.00 0.00 67 1016.1
20260902160105 91 263 8.0 15.0 0.00 0.00 0.00 68 1016.2
20260902155554 91 218 7.0 19.0 0.00 0.00 0.00 68 1016.2
20260902155055 91 258 9.0 19.0 0.00 0.00 0.00 69 1016.3
20260902154604 90 222 9.0 20.0 0.00 0.00 0.00 70 1016.1
20260902154054 90 255 9.0 20.0 0.00 0.00 0.00 70 1016.3
20260902153554 90 219 10.0 20.0 0.00 0.00 0.00 71 1016.2
20260902153101 90 207 8.0 16.0 0.00 0.00 0.00 72 1016.1
20260902152553 89 194 8.0 18.0 0.00 0.00 0.00 74 1016.1
20260902152058 89 244 9.0 18.0 0.00 0.00 0.00 74 1016.0
20260902151603 88 225 11.0 18.0 0.00 0.00 0.00 75 1016.2
20260902151055 87 251 8.0 18.0 0.00 0.00 0.00 76 1016.2
20260902150557 87 261 12.0 19.0 0.00 0.00 0.00 76 1016.2
20260902150106 87 265 8.0 19.0 0.00 0.00 0.00 77 1016.3
20260902145554 87 261 9.0 20.0 0.00 0.00 0.00 78 1016.2
20260902145054 87 213 10.0 20.0 0.00 0.00 0.00 78 1016.1
20260902144602 86 219 9.0 20.0 0.00 0.00 0.00 79 1016.2
20260902144054 86 245 9.0 20.0 0.00 0.00 0.00 80 1016.2
20260902143555 86 247 9.0 19.0 0.00 0.00 0.00 80 1016.2
20260902143104 85 249 10.0 18.0 0.00 0.00 0.00 81 1016.2
20260902142555 85 226 8.0 17.0 0.00 0.00 0.00 82 1016.2
20260902142055 85 259 9.0 17.0 0.00 0.00 0.00 83 1016.2
20260902141604 84 209 5.0 17.0 0.00 0.00 0.00 85 1016.2
20260902141054 83 230 7.0 17.0 0.00 0.00 0.00 85 1016.2
20260902140554 83 246 6.0 16.0 0.00 0.00 0.00 86 1016.2
20260902135555 82 226 6.0 14.0 0.00 0.00 0.00 88 1016.3
20260902135055 82 250 8.0 13.0 0.00 0.00 0.00 89 1016.2
20260902134615 82 269 6.0 13.0 0.00 0.00 0.00 90 1016.2
20260902134053 81 225 5.0 12.0 0.00 0.00 0.00 90 1016.2
20260902133554 81 261 6.0 12.0 0.00 0.00 0.00 91 1016.1
20260902133113 80 235 5.0 12.0 0.00 0.00 0.00 91 1016.1
20260902132553 80 245 4.0 10.0 0.00 0.00 0.00 92 1016.0
20260902132053 80 233 4.0 10.0 0.00 0.00 0.00 92 1015.8
20260902131601 79 246 3.0 9.0 0.00 0.00 0.00 92 1015.5
20260902131053 79 248 4.0 8.0 0.00 0.00 0.00 92 1015.5
20260902130553 79 221 3.0 8.0 0.00 0.00 0.00 92 1015.6
20260902125554 79 221 2.0 8.0 0.00 0.00 0.00 92 1015.5
20260902125054 79 233 2.0 7.0 0.00 0.00 0.00 92 1015.4
20260902124602 79 215 0.0 7.0 0.00 0.00 0.00 92 1015.3
20260902124055 78 227 1.0 5.0 0.00 0.00 0.00 92 1015.3
20260902123553 78 242 1.0 7.0 0.00 0.00 0.00 92 1015.3
20260902123120 78 225 1.0 7.0 0.00 0.00 0.00 92 1015.1
20260902122553 78 252 1.0 5.0 0.00 0.00 0.00 92 1015.0
20260902122054 78 0 0.0 4.0 0.00 0.00 0.00 92 1015.0
20260902121559 78 248 0.0 4.0 0.00 0.00 0.00 91 1014.9